Date String (YYYY-MM-DD hh:mm:ss) UTC,Instrument flags,absolute air pressure of the measurement (hPa),sample flow rate (lpm),inlet stack bypass flow (lpm),air temperature of the measurement (°C),ambient temperature measured by the external sensor (°C),aerosol sample conditioner tube jacket temperature (°C),OPC LED temperature (°C),internal box temperature (°C),relative humidity of the measurement (%),span deviation,mass concentration of particles derived from Lorenz-Mie calculation of OPC scattering (μg/m³),mass concentration of particles derived from Lorenz-Mie calculation of OPC scattering (μg/m³),mass concentration of particles derived from Lorenz-Mie calculation of OPC scattering (μg/m³)
DateTimeUTC,F1_M11,P_M11,Q1_M11,Q2_M11,T1_M11,T2_M11,T3_M11,T4_M11,T5_M11,U1_M11,ZSPAN_M11,X0_M11,X2_M11,X1_M11
2024-05-30 11:00:00,SystemResetWarning,0829.2,5.00,000.00,030.2,029.4,000.0,038.7,032.0,015.8,0000.0,0007.84,0003.37,0002.42
2024-05-30 11:01:00,SystemResetWarning,0829.2,5.00,000.00,030.2,029.4,000.0,038.7,032.0,015.9,0000.0,0007.85,0003.37,0002.42
2024-05-30 11:02:00,SystemResetWarning,0829.2,5.00,000.00,030.2,029.4,000.0,038.7,032.0,015.9,0000.0,0008.16,0003.37,0002.42
2024-05-30 11:03:00,SystemResetWarning,0829.2,5.01,000.00,030.2,029.4,000.0,038.7,032.0,016.1,0000.0,0008.36,0003.37,0002.41
2024-05-30 11:04:00,SystemResetWarning,0829.2,5.00,000.00,030.2,029.4,000.0,038.7,032.0,015.9,0000.0,0008.65,0003.41,0002.42
2024-05-30 11:05:00,SystemResetWarning,0829.2,5.00,000.00,030.2,029.4,000.0,038.7,032.0,015.8,0000.0,0009.18,0003.50,0002.43
2024-05-30 11:06:00,SystemResetWarning,0829.2,5.00,000.00,030.2,029.4,000.0,038.7,032.0,015.8,0000.0,0009.17,0003.50,0002.43
2024-05-30 11:07:00,SystemResetWarning,0829.2,5.00,000.00,030.2,029.4,000.0,038.7,032.0,015.7,0000.0,0009.46,0003.50,0002.41
2024-05-30 11:08:00,SystemResetWarning,0829.2,5.00,000.00,030.2,029.4,000.0,038.7,032.0,015.7,0000.0,0010.25,0003.53,0002.42
2024-05-30 11:09:00,SystemResetWarning,0829.2,5.00,000.00,030.2,029.4,000.0,038.7,032.0,015.7,0000.0,0010.39,0003.54,0002.42
2024-05-30 11:10:00,SystemResetWarning,0829.3,5.00,000.00,030.2,029.4,000.0,038.7,032.0,015.7,0000.0,0010.40,0003.56,0002.43
2024-05-30 11:11:00,SystemResetWarning,0829.3,5.00,000.00,030.2,029.4,000.0,038.7,032.0,015.7,0000.0,0010.26,0003.59,0002.45
2024-05-30 11:12:00,SystemResetWarning,0829.4,5.00,000.00,030.3,029.4,000.0,038.7,032.0,015.7,0000.0,0011.06,0003.58,0002.44
2024-05-30 11:13:00,SystemResetWarning,0829.4,5.00,000.00,030.3,029.4,000.0,038.7,032.0,015.8,0000.0,0011.26,0003.59,0002.44
2024-05-30 11:14:00,SystemResetWarning,0829.4,5.00,000.00,030.2,029.4,000.0,038.7,032.0,015.7,0000.0,0011.84,0003.62,0002.46
2024-05-30 11:15:00,SystemResetWarning,0829.3,5.00,000.00,030.3,029.4,000.0,038.7,032.0,015.7,0000.0,0011.87,0003.65,0002.47
2024-05-30 11:16:00,SystemResetWarning,0829.3,5.00,000.00,030.2,029.4,000.0,038.7,032.0,016.0,0000.0,0012.13,0003.61,0002.45
2024-05-30 11:17:00,SystemResetWarning,0829.3,5.00,000.00,030.2,029.4,000.0,038.7,032.0,016.1,0000.0,0011.81,0003.61,0002.46
2024-05-30 11:18:00,SystemResetWarning,0829.3,4.99,000.00,030.2,029.4,000.0,038.7,032.0,016.4,0000.0,0011.57,0003.58,0002.47
2024-05-30 11:19:00,SystemResetWarning,0829.3,5.00,000.00,030.2,029.4,000.0,038.7,032.0,016.9,0000.0,0010.76,0003.60,0002.48
2024-05-30 11:20:00,SystemResetWarning,0829.3,5.00,000.00,030.3,029.4,000.0,038.7,032.0,016.8,0000.0,0010.53,0003.63,0002.48
2024-05-30 11:21:00,SystemResetWarning,0829.3,5.00,000.00,030.3,029.4,000.0,038.7,032.0,016.7,0000.0,0011.01,0003.66,0002.48
2024-05-30 11:22:00,SystemResetWarning,0829.3,5.00,000.00,030.3,029.4,000.0,038.7,032.0,016.9,0000.0,0011.45,0003.63,0002.49
2024-05-30 11:23:00,SystemResetWarning,0829.3,5.01,000.00,030.2,029.4,000.0,038.7,032.0,016.8,0000.0,0011.10,0003.61,0002.49
2024-05-30 11:24:00,SystemResetWarning,0829.4,5.00,000.00,030.2,029.4,000.0,038.7,032.0,016.7,0000.0,0010.65,0003.65,0002.51
2024-05-30 11:25:00,SystemResetWarning,0829.4,5.00,000.00,030.2,029.4,000.0,038.7,032.0,017.1,0000.0,0010.07,0003.65,0002.52
2024-05-30 11:26:00,SystemResetWarning,0829.5,5.00,000.00,030.2,029.4,000.0,038.7,032.0,017.1,0000.0,0009.89,0003.64,0002.51
2024-05-30 11:27:00,SystemResetWarning,0829.6,5.01,000.00,030.2,029.4,000.0,038.7,032.0,017.2,0000.0,0008.82,0003.61,0002.52
2024-05-30 11:28:00,SystemResetWarning,0829.6,5.00,000.00,030.2,029.4,000.0,038.7,032.0,017.2,0000.0,0009.27,0003.61,0002.52
2024-05-30 11:29:00,SystemResetWarning,0829.6,5.00,000.00,030.2,029.4,000.0,038.7,032.0,017.3,0000.0,0009.66,0003.64,0002.51
2024-05-30 11:30:00,SystemResetWarning,0829.6,5.00,000.00,030.2,029.4,000.0,038.7,032.0,017.4,0000.0,0009.77,0003.64,0002.51
2024-05-30 11:31:00,SystemResetWarning,0829.6,5.01,000.00,030.2,029.4,000.0,038.7,032.0,017.4,0000.0,0010.03,0003.67,0002.50
2024-05-30 11:32:00,SystemResetWarning,0829.6,5.00,000.00,030.2,029.4,000.0,038.7,032.0,017.4,0000.0,0009.99,0003.68,0002.50
2024-05-30 11:33:00,SystemResetWarning,0829.6,5.01,000.00,030.2,029.4,000.0,038.7,032.0,017.4,0000.0,0009.96,0003.70,0002.49
2024-05-30 11:34:00,SystemResetWarning,0829.6,5.00,000.00,030.2,029.4,000.0,038.7,032.0,017.5,0000.0,0010.26,0003.74,0002.50
2024-05-30 11:35:00,SystemResetWarning,0829.6,4.99,000.00,030.2,029.4,000.0,038.7,032.0,017.5,0000.0,0010.21,0003.72,0002.50
2024-05-30 11:36:00,SystemResetWarning,0829.5,5.00,000.00,030.2,029.4,000.0,038.7,032.0,017.5,0000.0,0010.26,0003.73,0002.49
2024-05-30 11:37:00,SystemResetWarning,0829.5,5.01,000.00,030.2,029.4,000.0,038.7,032.0,017.3,0000.0,0010.68,0003.72,0002.49
2024-05-30 11:38:00,SystemResetWarning,0829.4,5.00,000.00,030.2,029.4,000.0,038.7,032.0,016.7,0000.0,0010.92,0003.74,0002.49
2024-05-30 11:39:00,SystemResetWarning,0829.4,5.01,000.00,030.2,029.4,000.0,038.7,032.0,016.9,0000.0,0010.61,0003.74,0002.49
2024-05-30 11:40:00,SystemResetWarning,0829.5,5.00,000.00,030.2,029.4,000.0,038.7,032.0,016.9,0000.0,0010.29,0003.77,0002.51
2024-05-30 11:41:00,SystemResetWarning,0829.5,5.00,000.00,030.2,029.4,000.0,038.7,032.0,017.0,0000.0,0010.20,0003.78,0002.54
2024-05-30 11:42:00,SystemResetWarning,0829.5,5.00,000.00,030.2,029.4,000.0,038.7,032.0,017.2,0000.0,0010.04,0003.73,0002.53
2024-05-30 11:43:00,SystemResetWarning,0829.5,5.01,000.00,030.2,029.4,000.0,038.7,031.9,017.2,0000.0,0010.28,0003.71,0002.54
2024-05-30 11:44:00,SystemResetWarning,0829.6,5.00,000.00,030.3,029.4,000.0,038.7,031.9,017.2,0000.0,0009.76,0003.73,0002.54
2024-05-30 11:45:00,SystemResetWarning,0829.6,5.00,000.00,030.3,029.4,000.0,038.7,031.9,017.2,0000.0,0009.17,0003.71,0002.54
2024-05-30 11:46:00,SystemResetWarning,0829.6,5.00,000.00,030.3,029.4,000.0,038.7,031.9,017.2,0000.0,0009.38,0003.74,0002.55
2024-05-30 11:47:00,SystemResetWarning,0829.7,5.00,000.00,030.3,029.4,000.0,038.7,032.0,017.2,0000.0,0009.79,0003.71,0002.56
2024-05-30 11:48:00,SystemResetWarning,0829.6,5.00,000.00,030.3,029.4,000.0,038.7,032.0,017.2,0000.0,0009.78,0003.71,0002.58
2024-05-30 11:49:00,SystemResetWarning,0829.7,5.00,000.00,030.3,029.4,000.0,038.7,032.0,017.2,0000.0,0009.63,0003.71,0002.58
2024-05-30 11:50:00,SystemResetWarning,0829.7,4.99,000.00,030.3,029.4,000.0,038.7,032.0,017.2,0000.0,0009.77,0003.79,0002.59
2024-05-30 11:51:00,SystemResetWarning,0829.6,5.00,000.00,030.3,029.4,000.0,038.7,032.0,017.1,0000.0,0010.35,0003.81,0002.58
2024-05-30 11:52:00,SystemResetWarning,0829.7,5.01,000.00,030.2,029.4,000.0,038.7,032.0,016.9,0000.0,0011.14,0003.82,0002.57
2024-05-30 11:53:00,SystemResetWarning,0829.7,5.01,000.00,030.2,029.4,000.0,038.7,032.0,016.7,0000.0,0011.55,0003.83,0002.60
2024-05-30 11:54:00,SystemResetWarning,0829.7,5.00,000.00,030.2,029.4,000.0,038.7,031.9,016.6,0000.0,0011.23,0003.83,0002.59
2024-05-30 11:55:00,SystemResetWarning,0829.7,5.01,000.00,030.2,029.4,000.0,038.7,031.9,016.5,0000.0,0012.15,0003.82,0002.60
2024-05-30 11:56:00,SystemResetWarning,0829.7,4.99,000.00,030.2,029.4,000.0,038.7,031.9,016.4,0000.0,0012.47,0003.83,0002.62
2024-05-30 11:57:00,SystemResetWarning,0829.7,4.99,000.00,030.2,029.4,000.0,038.6,031.9,016.2,0000.0,0012.85,0003.79,0002.61
2024-05-30 11:58:00,SystemResetWarning,0829.7,4.99,000.00,030.2,029.4,000.0,038.6,032.0,016.1,0000.0,0012.85,0003.76,0002.59
2024-05-30 11:59:00,SystemResetWarning,0829.7,5.00,000.00,030.2,029.4,000.0,038.6,032.0,015.9,0000.0,0013.02,0003.75,0002.57
